Regional Weather Roundup
Issued by NWS

Home | Current Version | Previous Version | Text Only | Print | Product List | Glossary On
Versions: 1 2 3 4 5 6 7 8 9 10 11 12 13 14 15 16 17 18 19 20 21 22 23 24 25 26 27 28 29 30 31 32 33 34 35 36 37 38 39 40 41 42 43 44 45 46 47 48 49 50
000
ASHW40 PHFO 040043
RWRHI

WEATHER ROUNDUP FOR HAWAII
NATIONAL WEATHER SERVICE HONOLULU HI
200 PM HST SAT DEC 03 2016

THIS IS AN AUTOMATED REPORT THAT HAS NOT BEEN QUALITY CONTROLLED.

NOTE..."FAIR" INDICATES FEW OR NO CLOUDS BELOW 12,000 FEET WITH NO
SIGNIFICANT WEATHER AND/OR OBSTRUCTIONS TO VISIBILITY.

* - THESE SITES REPORT LIMITED FIELDS

HIZ001>004-040100-
KAUAI-NIIHAU-

CITY           SKY/WX    TMP DP  RH WIND       PRES   REMARKS
LIHUE APT      MOSUNNY   80  70  71 NE7       29.84F
PORT ALLEN*      N/A     82 N/A N/A S10         N/A
POIPU*           N/A     82 N/A N/A SE5         N/A
PRINCEVILLE*     N/A     79 N/A N/A NE5G10      N/A
KOKOLE POINT*  NOT AVBL
MOLOAA DAIRY*    N/A     82  72  69 NE3G10      N/A
WAIMEA HTS*      N/A     82  68  61 S8G14       N/A
PUU OPAE*      NOT AVBL
PUU LUA*       NOT AVBL
MAKAHA RIDGE*    N/A     75  63  64 NW2         N/A
$$

HIZ005>011-040100-
OAHU-

CITY           SKY/WX    TMP DP  RH WIND       PRES   REMARKS
HONOLULU       PTSUNNY   81  70  69 SW14      29.80F
KALAELOA       MOSUNNY   84  70  61 SW12      29.81F
KANEOHE MCB    NOT AVBL
WHEELER FIELD  NOT AVBL
BELLOWS*         N/A    N/A N/A N/A NE9         N/A
KAHUKU*          N/A    N/A N/A N/A NE7G13      N/A
WHEELER*         N/A    N/A N/A N/A NE9G15      N/A
WAIANAE HARBOR   N/A    N/A N/A N/A W10         N/A
DILLINGHAM*      N/A     64  50  59 MISG        N/A
KAHUKU TRN*      N/A     70  63  78 W6G15       N/A
KAWAILOA*        N/A     73  66  78 E5G12       N/A
KII*             N/A     77  70  78 E10         N/A
MAKUA RANGE*     N/A     81  70  69 SE3         N/A
OAHU FOREST NW   N/A     72 N/A N/A W2          N/A
SCHOFIELD BRK*   N/A     79  68  69 MISG        N/A
SCHOFIELD S*   NOT AVBL
WAIANAE VLY*   NOT AVBL
KUAOKALA*        N/A     75  70  83 N3G17       N/A
HONOULIUULI*   NOT AVBL
MOKUOLOE IS*   NOT AVBL
PALEHUA*         N/A     72  64  78 SW2G12      N/A
WAIAWA PHB*    NOT AVBL
$$

HIZ012>013-040100-
MOLOKAI-

CITY           SKY/WX    TMP DP  RH WIND       PRES   REMARKS
MOLOKAI AIRPT  PTSUNNY   80  67  64 SE9       29.82F
KALAUPAPA      NOT AVBL
MAKAPULAPAI*     N/A     81  70  69 E12         N/A
MOLOKAI 1*     NOT AVBL
PUU ALII*        N/A     66  62  88 S1          N/A
$$

HIZ016-040100-
KAHOOLAWE-

CITY           SKY/WX    TMP DP  RH WIND       PRES   REMARKS
KAHOOLAWE*       N/A     73 N/A N/A E1          N/A
HAKIOAWA*        N/A     73  67  82 MISG      30.25F
HONOKANAIA*      N/A     84  71  65 SW8G14    29.78
KANELOA*         N/A     75  68  78 E8G22       N/A
KEALIALALO*    NOT AVBL
LUA MAKIKA*    NOT AVBL
$$

HIZ014>015-040100-
LANAI-

CITY           SKY/WX    TMP DP  RH WIND       PRES   REMARKS
LANAI CITY     PTSUNNY   74  67  78 W7        29.88F
LANAI 1*       NOT AVBL
$$

HIZ017>028-040100-
MAUI-

CITY           SKY/WX    TMP DP  RH WIND       PRES   REMARKS
KAHULUI        PTSUNNY   82  67  60 NW6       29.80F
KAPALUA-W MAUI MOSUNNY   79  66  65 SW6       29.82
HANA AIRPORT   LGT RAIN  75  72  88 SE5       29.85S
HANA*            N/A     75 N/A N/A SE6G15      N/A
HALEAKALA SUMM   N/A     45  45 100 SW7         N/A
MAALAEA BAY*     N/A     84 N/A N/A SW14G20     N/A
HALEAKALA*     NOT AVBL
KAUPO GAP*       N/A     81  81 100 SE8         N/A  HX  91
KULA 1*          N/A     56  51  84 SW3G10      N/A
$$

HIZ023>026-040100-
BIG ISLAND OF HAWAII COAST AND LOWER SLOPES-

CITY           SKY/WX    TMP DP  RH WIND       PRES   REMARKS
KAILUA KONA    PTSUNNY   82  71  69 S14       29.80F
HILO           LGT RAIN  72  70  93 W7        29.82F
HONOKAA*         N/A     72 N/A N/A VRB1        N/A
KAWAIHAE MWT*    N/A     79 N/A N/A W10G16      N/A
KAWAIHAE*        N/A     79 N/A N/A W12       29.81F
SOUTH POINT*     N/A     77 N/A N/A N10G16      N/A
UPOLU AIRPORT* NOT AVBL
KAMUELA*       CLOUDY    70  64  83 W7        29.93S
HAKALAU*         N/A     56  55  95 SE3G10      N/A
KALOKO-HONOKO*   N/A     84  68  58 S8G14     29.78F
PALI 2*          N/A     70  68  94 NW6G12      N/A
KEALAKOMO*       N/A     81  72  74 E7          N/A
KAUPULEHU*       N/A     84  54  34 W5G13       N/A
KAPAPALA*        N/A     74  67  80 SE6G13      N/A
LOWER KAHUKU*    N/A     64  64 100 W2G13       N/A
PUHE CS*         N/A     81  70  69 W7G14       N/A
PUHO CS*         N/A     83  65  53 SW3G9       N/A
PTA KEAMUKU*     N/A    N/A N/A N/A CALM        N/A
WAIKOLOA*        N/A     77  68  73 NW3G17      N/A
$$

HIZ027>028-040100-
BIG ISLAND OF HAWAII INTERIOR AND SUMMMITS-

CITY           SKY/WX    TMP DP  RH WIND       PRES   REMARKS
BRADSHAW FIELD NOT AVBL
MK VISITOR CEN   N/A     48  43  81 NW3         N/A
MAUNA KEA*       N/A     34  27  75 SW9         N/A  WCI  26
MAUNA LOA*       N/A     41  39  93 MISG        N/A
MAUNA LOA 1*   NOT AVBL
PTA KIPUKA*      N/A     61  54  77 NW7         N/A
PTA RANGE 17*    N/A     63  54  72 W7          N/A
PTA WEST*        N/A     70  64  83 W13G20      N/A
NENE CABIN*      N/A     57  54  88 SE3G10      N/A
AHUMOA*          N/A     54  53  98 SW5G10      N/A
PTA PORTABLE*  NOT AVBL
PUU MALI*        N/A     54  54 100 W8G14       N/A
$$

HIC003-040100-
NORTHWEST ISLANDS-

CITY           SKY/WX    TMP DP  RH WIND       PRES   REMARKS
MIDWAY ISLAND  LGT RAIN  70  59  68 NE18      30.24F
MIDWAY NOS*      N/A     70 N/A N/A MISG      30.21F
FRENCH FRIGATE NOT AVBL
$$

PHZ110>124-180-040100-
BUOY REPORTS

STATION/POSITION TIME  TEMP    WIND        PRES    WAVE   SWELL
                       AIR SEA DIR/SP/G            HT/PER HT/DIR
                 (UTC) (F)     (DEG/KT/KT) (MB)    (FT/S) (FT/D)
BUOY 51001       0030   76 78  340/  4/  8 1010.1F
BUOY 51101       2350   75 78  360/  6/  8 1011.2F  13/10  13/ 50
BUOY 51100       NOT AVBL
BUOY 51002       0030   77 79   50/  4/  6 1009.3F
BUOY 51003       2350   78 80  130/  6/ 10 1010.3F   8/14   8/300
BUOY 51004       2350   78 79  140/ 14/ 17 1010.2F  10/10   8/ 90
BARBERS PT BUOY  NOT AVBL
WAIMEA BAY BUOY  NOT AVBL
KAILUA BAY BUOY  0004      78                N/A     8/10   3/ 90
LANAI BUOY       0015      79                N/A     3/13   2/260
BARBERS PT 2     0009      80                N/A     5/13   3/300
PAUWELA MAUI     0009      78                N/A     8/10   3/ 90
HILO             0012      77                N/A    11/10   5/ 90
KANEOHE BAY BUOY 0006      77                N/A     7/10   3/ 80
HANALEI KAUAI    0022      78                N/A     9/13   7/310
KAHULUI HARBOR   0006   78 76  360/  6/  7 1009.1
HONOLULU HARBOR  0006   77 78  240/  7/  8 1009.9
KILO NALU        NOT AVBL
HILO HARBOR      0006   73 75  270/  5/  6 1009.6
MOKUOLOE         2336   77 75   50/  6/  8 1009.9F
NAWILIWILI       0006   77 78  100/  6/  8 1010.3
WHOTS BUOY       NOT AVBL
BUOY 51028       NOT AVBL
$$

......................KEY........................................
  SKY/WX - SKY CONDITIONS/PRESENT WEATHER
  TMP    - TEMPERATURE IN FAHRENHEIT
  DWPT   - DEWPOINT IN FAHRENHEIT
  RH     - RELATIVE HUMIDITY IN PERCENT
  WIND   - DIRECTION AND SPEED /MPH FOR ISLANDS...KTS FOR BUOYS/
  PRES   - MEAN SEA LEVEL PRESSURE IN INCHES OF HG
  VSB    - VISIBILITY IN MILES
  HX     - HEAT INDEX
  WCI    - WIND CHILL INDEX
  VRB    - VARIABLE WIND DIRECTION
  N/A    - NOT AVAILABLE




USA.gov is the U.S. government's official web portal to all federal, state and local government web resources and services.